Wind_Speed
45 45 46 47 47 47 47 47 47 47 48 47 45 45 45 45 45 46 45 45 45 45 46 46 44 45 45 45 45 45 45 45 44 44 43 43 43 43 43 44 43 43 43
45 44 45 44 45 46 46 46 46 47 47 46 47 45 45 45 46 46 45 46 46 45 46 46 46 47 46 46 46 46 45 45 45 43 42 42 43 43 44 44 43 43 44
43 43 44 44 45 45 46 45 46 46 46 46 46 46 46 46 46 46 46 46 46 46 46 46 47 46 46 46 46 46 45 45 45 44 43 43 44 44 44 43 43 43 44
43 43 43 43 45 45 45 46 46 47 46 46 45 46 46 46 46 46 46 46 46 46 46 45 45 46 46 45 45 45 45 45 45 45 45 44 44 44 44 44 44 44 45
43 43 43 43 44 45 45 45 46 46 46 45 45 44 45 45 45 46 46 46 45 45 45 45 44 45 46 45 45 44 45 45 46 46 46 45 45 44 45 45 44 45 45
43 43 44 44 43 44 44 44 45 45 44 44 44 43 43 44 45 45 46 46 45 45 45 45 44 44 44 44 44 44 44 44 44 45 45 45 45 45 45 44 44 45 46
44 44 44 44 44 45 45 44 44 44 44 44 43 43 43 44 45 45 45 45 45 45 45 45 45 44 44 44 44 44 44 44 45 45 45 44 45 45 45 45 45 46 46
42 42 43 44 45 45 45 45 45 45 44 44 44 43 43 43 44 44 45 45 44 44 44 44 44 44 45 45 44 44 45 45 45 45 45 44 44 45 45 45 46 46 46
42 42 42 43 43 43 44 44 44 44 44 43 44 44 44 44 44 44 44 44 43 43 43 43 44 44 45 45 45 45 45 45 45 45 45 45 45 45 46 46 46 46 46
41 41 41 42 42 42 42 42 43 43 42 43 43 43 43 43 43 43 43 43 43 43 42 43 44 45 45 45 45 45 44 44 44 45 44 44 44 45 45 46 45 44 44
40 40 40 40 40 41 41 41 41 42 43 43 42 42 42 42 42 42 42 43 43 42 41 42 43 43 44 44 44 44 44 44 44 44 44 44 44 45 45 44 44 44 44
38 38 39 39 39 39 39 39 40 40 41 42 42 41 41 40 41 41 41 41 41 41 41 41 41 42 42 42 43 43 43 43 43 42 42 43 43 42 42 42 42 42 42
37 37 37 38 36 37 37 37 38 38 39 40 40 40 40 40 40 40 40 40 40 40 40 40 41 41 41 41 41 41 41 41 41 41 41 41 41 40 40 40 40 41 41
35 36 36 37 36 35 35 36 36 37 37 38 39 39 39 39 39 39 40 40 40 40 40 40 40 40 40 39 39 39 39 39 39 39 39 39 38 39 39 39 39 39 39
33 34 36 36 36 35 35 35 35 35 36 37 38 38 38 38 38 38 38 38 38 38 38 38 37 37 37 37 37 37 37 37 37 37 37 37 37 38 38 38 38 38 38
32 33 34 35 35 35 35 35 35 35 35 35 36 36 37 36 36 36 36 36 36 37 37 36 36 35 35 35 35 36 36 36 36 37 36 36 36 36 37 37 37 37 36
30 31 32 33 34 34 34 34 34 35 35 34 34 35 36 36 36 36 36 36 36 36 35 34 34 34 34 34 34 34 34 34 35 35 35 35 36 36 36 36 36 35 35
28 29 30 31 32 33 33 34 34 34 35 35 35 35 35 36 35 35 35 35 35 34 34 34 34 34 34 34 33 33 33 33 34 34 34 34 34 34 34 34 34 34 34
28 28 29 30 31 32 33 33 33 33 34 34 35 35 35 35 34 34 34 33 33 33 33 33 33 33 32 32 32 32 32 32 32 33 33 33 33 33 33 33 33 33 34
26 27 27 28 28 29 30 31 31 31 32 32 33 33 33 33 33 32 32 32 32 32 31 31 31 31 31 31 30 30 31 31 31 32 32 32 32 32 32 32 32 32 33
25 25 26 26 27 27 28 29 29 30 30 30 30 30 31 31 31 31 30 30 30 30 30 30 30 30 30 30 29 30 30 30 30 31 31 31 31 31 31 31 31 31 32
24 25 25 26 26 27 27 28 28 29 29 29 29 30 30 31 31 30 30 30 29 29 29 28 28 28 28 29 29 29 29 29 29 29 30 30 30 30 30 30 30 30 30
23 23 24 25 25 26 26 27 27 28 28 28 29 29 30 30 30 30 30 30 30 29 29 29 29 28 28 29 29 29 29 29 29 29 29 28 28 28 29 29 29 29 29
23 23 23 24 24 25 25 26 26 27 27 28 28 29 29 30 30 31 30 30 30 29 29 29 29 28 28 28 28 29 29 28 28 28 28 28 28 28 28 28 28 29 29
22 23 22 23 23 24 25 26 26 26 27 27 28 28 28 29 30 30 31 30 30 30 30 29 29 29 29 29 29 29 29 29 29 28 28 28 28 29 29 29 29 29 29
21 22 22 22 23 24 24 25 26 27 27 27 28 28 29 29 29 29 29 29 30 30 30 30 30 30 30 29 29 30 29 29 29 29 29 28 28 28 28 28 29 29 30
Wind_Direction
252 252 251 251 250 250 250 250 250 250 249 249 250 251 251 251 251 253 254 254 255 256 257 258 259 259 260 261 263 265 266 266 267 266 265 265 266 266 267 268 269 269 269
250 251 250 249 249 250 250 250 250 250 250 250 251 252 252 252 252 253 254 255 256 257 259 259 259 260 261 263 266 267 266 266 266 265 265 266 266 267 268 269 269 269 269
250 251 251 251 250 250 250 249 249 249 250 251 252 253 253 253 254 254 255 256 257 258 260 261 262 263 263 265 266 266 266 265 265 265 266 267 267 267 267 268 269 270 270
250 251 251 251 250 250 250 249 249 250 251 251 252 254 254 254 254 254 255 257 257 257 259 260 261 262 264 264 265 265 265 266 266 266 266 268 268 267 267 268 269 270 271
251 250 251 250 250 250 249 250 250 250 251 252 253 253 254 254 254 255 255 256 256 256 257 258 260 261 262 263 264 265 265 266 266 266 267 268 268 267 268 269 269 270 271
251 250 250 250 250 249 249 250 250 250 251 252 252 253 254 254 254 255 255 255 256 257 258 259 259 261 263 263 264 264 265 266 266 267 267 267 267 267 269 269 270 271 273
251 250 250 250 250 249 249 249 249 250 251 252 252 253 254 254 254 255 255 256 257 257 257 258 259 261 263 264 264 264 265 266 267 267 267 266 265 267 269 270 270 272 274
252 250 249 250 250 249 249 249 249 249 250 250 251 253 254 255 255 256 256 257 258 258 258 258 260 261 262 263 264 265 265 266 267 267 266 265 265 267 269 270 271 272 273
253 251 250 250 250 250 249 249 248 249 250 250 251 253 254 255 255 256 256 257 258 259 258 259 260 261 263 264 265 265 266 267 267 268 266 266 267 268 270 271 272 273 274
252 251 249 249 249 249 249 248 248 248 250 251 252 253 254 255 256 257 257 257 258 259 259 259 260 261 262 264 264 265 266 266 267 267 267 268 268 270 271 272 273 274 275
252 249 249 248 248 248 248 248 248 249 249 250 251 253 254 256 256 256 257 257 258 259 260 260 261 262 262 263 263 264 265 266 267 266 266 267 269 270 271 272 273 274 275
252 250 249 249 248 248 248 249 249 249 249 249 250 252 253 255 256 256 256 256 257 259 260 261 261 262 263 263 264 264 265 267 267 266 267 268 269 270 270 271 272 273 274
252 250 248 248 248 248 248 249 250 250 250 250 251 252 253 254 255 256 256 257 258 259 260 261 261 262 263 263 263 264 265 266 266 267 268 268 269 269 269 270 271 272 273
250 248 247 248 248 248 248 248 249 250 251 251 251 252 253 254 255 256 258 259 259 259 260 260 261 261 262 262 263 263 264 265 266 266 267 267 267 267 268 270 271 273 274
250 248 248 248 248 247 247 247 249 250 250 251 252 252 253 254 255 256 258 258 259 259 260 259 260 260 260 261 262 263 263 264 265 266 266 266 267 268 269 271 272 273 274
253 250 249 249 249 248 248 248 249 249 250 251 251 252 252 253 254 256 257 258 258 259 260 260 259 259 259 261 262 262 262 262 263 264 265 266 267 268 270 272 273 274 274
254 252 250 249 249 249 249 250 250 250 250 251 252 252 252 253 254 255 257 257 257 259 259 259 259 259 259 261 261 262 262 262 263 264 265 267 268 269 270 272 273 274 275
255 252 250 248 249 249 250 251 251 251 251 252 252 253 253 253 253 255 256 257 257 258 258 258 259 259 259 261 262 262 263 263 263 264 266 267 268 269 270 271 273 274 275
255 253 250 250 251 251 251 251 252 251 251 251 252 253 253 252 252 253 254 255 255 256 257 258 258 258 258 260 262 262 263 263 264 264 266 268 269 270 271 271 273 274 276
255 253 252 251 251 250 250 250 250 250 250 250 251 252 252 251 251 252 253 253 253 254 255 256 257 256 257 259 260 261 262 263 264 265 266 268 269 270 271 272 273 274 275
254 252 251 251 251 250 248 248 249 249 249 249 250 250 250 250 250 251 251 251 252 253 254 255 256 255 256 257 259 260 261 263 264 265 266 267 268 270 271 272 273 274 276
254 252 250 250 250 249 248 247 247 247 248 248 248 249 249 248 248 249 250 250 251 252 253 254 255 255 256 257 258 259 261 263 264 265 266 267 268 270 272 273 274 276 278
254 252 250 249 250 249 248 247 246 247 247 247 247 248 247 246 246 248 250 251 251 252 253 254 255 256 256 257 258 259 260 261 263 264 265 266 267 269 270 272 274 276 277
254 253 251 250 249 248 247 247 247 247 248 247 247 247 247 247 247 248 249 250 251 252 252 254 254 254 255 256 258 258 259 261 263 264 265 266 268 269 270 271 273 275 277
256 254 252 250 249 248 248 248 248 248 248 248 247 248 248 248 248 248 249 250 251 251 251 252 252 253 255 256 257 258 259 261 263 264 265 267 269 270 271 273 274 275 277
259 256 254 252 251 250 251 250 249 249 249 248 247 248 248 248 249 249 249 249 249 249 249 250 251 253 255 256 257 258 259 260 262 263 264 266 269 270 271 272 274 276 278
Height
5604 5606 5609 5612 5615 5618 5622 5625 5629 5633 5636 5640 5643 5647 5650 5654 5657 5660 5663 5666 5669 5671 5674 5676 5679 5681 5682 5684 5685 5687 5688 5689 5690 5693 5693 5694 5695 5695 5696 5697 5697 5697 5698
5592 5594 5597 5600 5603 5607 5610 5614 5617 5621 5624 5628 5631 5635 5638 5642 5645 5648 5652 5654 5657 5659 5662 5664 5666 5668 5670 5672 5673 5674 5675 5676 5678 5680 5681 5682 5683 5684 5684 5685 5685 5685 5686
5580 5582 5585 5589 5592 5595 5599 5602 5606 5609 5613 5616 5619 5623 5626 5630 5633 5636 5639 5642 5645 5647 5650 5652 5654 5656 5657 5659 5660 5661 5663 5664 5665 5667 5669 5670 5671 5671 5672 5673 5673 5673 5673
5569 5571 5574 5577 5581 5584 5587 5591 5594 5598 5601 5605 5608 5611 5614 5617 5621 5624 5627 5630 5632 5635 5637 5639 5641 5643 5645 5646 5648 5649 5650 5652 5653 5654 5656 5657 5658 5659 5659 5660 5661 5661 5661
5558 5560 5563 5566 5569 5572 5576 5579 5583 5586 5589 5593 5596 5599 5602 5605 5608 5611 5614 5617 5620 5622 5625 5627 5629 5631 5632 5634 5635 5637 5638 5639 5640 5642 5643 5644 5645 5646 5647 5647 5648 5648 5649
5546 5549 5551 5554 5557 5561 5564 5568 5571 5575 5578 5581 5584 5587 5590 5593 5596 5598 5601 5605 5608 5610 5612 5614 5616 5618 5620 5621 5623 5624 5625 5627 5628 5629 5631 5632 5633 5633 5634 5634 5635 5636 5636
5534 5537 5539 5542 5545 5549 5552 5556 5560 5563 5566 5570 5573 5576 5579 5581 5584 5586 5589 5592 5595 5597 5599 5601 5603 5605 5607 5609 5610 5611 5613 5614 5615 5617 5618 5619 5620 5621 5621 5622 5622 5622 5622
5522 5525 5527 5531 5534 5537 5541 5544 5548 5551 5555 5558 5561 5564 5567 5569 5572 5574 5576 5579 5582 5584 5586 5589 5591 5593 5594 5596 5597 5599 5600 5601 5602 5603 5605 5606 5606 5607 5608 5608 5608 5608 5609
5511 5513 5516 5519 5522 5526 5529 5533 5536 5540 5543 5547 5550 5553 5555 5558 5560 5562 5564 5567 5570 5572 5574 5576 5578 5580 5581 5583 5585 5586 5588 5588 5589 5590 5591 5592 5593 5594 5594 5594 5595 5595 5595
5499 5502 5504 5507 5511 5514 5518 5521 5525 5528 5532 5535 5538 5541 5543 5546 5548 5550 5552 5555 5558 5560 5562 5564 5565 5567 5568 5570 5572 5573 5575 5576 5576 5577 5578 5580 5580 5581 5581 5581 5581 5581 5581
5487 5490 5493 5496 5499 5502 5506 5509 5513 5517 5520 5524 5527 5529 5532 5534 5536 5538 5540 5543 5545 5548 5550 5552 5553 5554 5556 5557 5559 5561 5562 5563 5564 5564 5566 5566 5567 5567 5567 5567 5567 5567 5567
5476 5479 5482 5484 5488 5491 5495 5498 5501 5505 5508 5511 5514 5517 5520 5522 5524 5526 5529 5531 5533 5536 5538 5540 5541 5542 5543 5545 5547 5548 5549 5550 5551 5552 5553 5554 5554 5554 5554 5554 5554 5554 5554
5466 5468 5471 5474 5477 5480 5484 5487 5490 5493 5496 5499 5503 5506 5508 5511 5513 5515 5517 5519 5521 5524 5526 5528 5529 5530 5532 5533 5535 5536 5537 5538 5539 5540 5541 5542 5542 5542 5542 5542 5542 5542 5542
5455 5458 5461 5464 5467 5470 5473 5476 5479 5482 5485 5488 5491 5494 5497 5500 5502 5504 5506 5508 5510 5512 5514 5516 5517 5519 5520 5522 5523 5524 5525 5526 5527 5528 5529 5530 5530 5530 5531 5531 5531 5531 5531
5445 5448 5451 5454 5457 5460 5463 5466 5469 5472 5474 5477 5480 5483 5486 5489 5491 5493 5495 5497 5499 5501 5503 5505 5506 5507 5509 5510 5512 5513 5514 5515 5516 5517 5518 5519 5519 5519 5520 5520 5520 5520 5520
5436 5438 5441 5444 5447 5450 5453 5456 5458 5462 5464 5467 5470 5472 5475 5478 5480 5482 5485 5486 5488 5490 5492 5494 5495 5497 5498 5500 5501 5502 5503 5504 5505 5506 5507 5507 5508 5509 5509 5509 5509 5508 5508
5427 5429 5432 5434 5437 5440 5443 5446 5449 5452 5454 5457 5460 5462 5465 5467 5470 5472 5474 5476 5478 5479 5481 5483 5485 5486 5488 5489 5490 5491 5492 5493 5494 5495 5496 5497 5497 5498 5498 5498 5498 5498 5497
5418 5420 5423 5425 5428 5430 5433 5436 5439 5442 5445 5447 5450 5452 5454 5457 5459 5461 5464 5466 5467 5469 5471 5473 5474 5476 5477 5479 5480 5481 5482 5483 5484 5485 5486 5486 5487 5487 5487 5487 5487 5487 5487
5410 5411 5414 5416 5418 5421 5424 5426 5429 5431 5434 5437 5439 5442 5444 5447 5449 5451 5453 5456 5457 5459 5461 5462 5464 5465 5467 5468 5470 5471 5472 5473 5474 5475 5476 5476 5477 5477 5477 5477 5477 5477 5476
5401 5403 5405 5407 5409 5412 5414 5416 5419 5422 5424 5427 5429 5432 5434 5437 5439 5441 5443 5445 5447 5449 5451 5452 5454 5455 5457 5458 5460 5461 5462 5463 5464 5465 5466 5466 5467 5467 5467 5467 5467 5467 5466
5393 5395 5397 5399 5401 5403 5405 5407 5410 5412 5415 5417 5420 5422 5424 5427 5430 5432 5434 5436 5438 5440 5441 5443 5444 5446 5447 5449 5450 5452 5453 5454 5455 5455 5456 5456 5457 5457 5457 5457 5457 5457 5456
5385 5387 5389 5390 5392 5394 5396 5399 5401 5403 5406 5408 5411 5413 5415 5418 5420 5423 5425 5427 5429 5431 5432 5434 5436 5437 5438 5440 5441 5443 5444 5445 5445 5446 5447 5447 5447 5447 5447 5447 5447 5447 5447
5378 5379 5381 5383 5385 5386 5388 5390 5393 5395 5397 5400 5402 5404 5407 5409 5411 5414 5416 5418 5420 5422 5423 5425 5427 5428 5429 5431 5432 5433 5434 5435 5436 5437 5437 5438 5438 5438 5438 5438 5438 5438 5437
5370 5372 5373 5375 5377 5379 5381 5383 5385 5387 5389 5391 5393 5396 5398 5400 5402 5404 5407 5409 5410 5412 5414 5416 5418 5419 5420 5422 5423 5424 5425 5426 5427 5428 5428 5429 5429 5429 5429 5429 5429 5429 5428
5363 5365 5366 5368 5369 5371 5373 5375 5377 5378 5380 5382 5385 5387 5389 5391 5393 5395 5397 5399 5401 5403 5405 5407 5408 5410 5411 5412 5414 5415 5416 5417 5418 5419 5419 5420 5420 5420 5421 5420 5420 5420 5419
5356 5357 5359 5360 5362 5363 5365 5366 5368 5370 5372 5374 5376 5378 5380 5382 5384 5386 5388 5390 5392 5394 5395 5397 5399 5400 5402 5403 5404 5405 5406 5407 5408 5409 5410 5411 5411 5411 5411 5411 5411 5411 5410